Other Public Products
Issued by NWS Grand Forks, ND

Home | Current Version | Previous Version | Text Only | Print | Product List | Glossary On
Versions: 1 2 3 4 5 6 7 8 9 10 11 12 13 14 15 16 17 18 19 20 21 22 23 24 25 26 27 28 29 30 31 32 33 34 35 36 37 38 39 40 41 42 43 44 45 46 47 48 49 50
000
FPUS83 KFGF 260431
OPUFGF
PRAIRIE TO PINES WEATHER ROUNDUP
NATIONAL WEATHER SERVICE EASTERN NORTH DAKOTA/GRAND FORKS ND
1100 PM CDT SAT MAR 25 2017

 **SATELLITE DATA USED TO AUGMENT SKY COVER AT AUTOMATED STATIONS**
 *****  WEATHER ACROSS EASTERN NORTH DAKOTA  *****

CITY           SKY/WX    TMP DP  RH WIND       PRES   REMARKS
GRAND FORKS    FAIR      34  33  96 S5        30.00R
GRAND FORKS AF FAIR      34  33  95 S6        29.98F
GRAND CITY NWS NOT AVBL
BUXTON         NOT AVBL
DEVILS LAKE    CLOUDY    35  32  88 S9        29.95F
FARGO          FAIR      30  28  92 CALM      30.02F
WAHPETON ARPT  CLOUDY    34  32  93 S6        30.02F
$$

 *****  WEATHER ACROSS CENTRAL AND WESTERN NORTH DAKOTA  *****

CITY           SKY/WX    TMP DP  RH WIND       PRES   REMARKS
JAMESTOWN      FAIR      32  30  92 S8        29.97R WCI  25
BISMARCK       CLOUDY    45  34  65 SE5       29.93S
MINOT          CLOUDY    47  35  63 SW8       29.87F
MINOT AFB      MOCLDY    41  35  79 W3        29.86F
GARRISON         N/A     40  33  76 SE6       29.88F
WILLISTON      FAIR      46  32  58 W3        29.88S
DICKINSON      CLOUDY    44  29  55 S3        29.88S
HETTINGER      CLOUDY    46  34  62 E3        29.89F
$$

 *****  OTHER OBSERVATIONS NORTHEAST NORTH DAKOTA  *****

CITY           SKY/WX    TMP DP  RH WIND       PRES   REMARKS
WALHALLA       NOT AVBL
LANGDON        MOCLDY    34  34 100 S15       29.94F WCI  24
CAVALIER         N/A     34  32  93 S8        29.97F
GRAFTON        FAIR      32  32 100 S7        30.01F
CANDO          NOT AVBL
FORT TOTTEN      N/A     34  34 100 S10       29.95S
ROLLA          CLOUDY    34  34 100 SW12      29.91F
RUGBY            N/A     36  36 100 S10       29.90F
 ***** THE ABOVE OBSERVATIONS ARE NON NWS ARE NOT QUALITY
        CONTROLLED AND MAY MIS-REPORT RAIN FOR SNOW...
$$

 *****  OTHER OBSERVATIONS SOUTHEAST NORTH DAKOTA *****

CITY           SKY/WX    TMP DP  RH WIND       PRES   REMARKS
COOPERSTOWN    FAIR      32  32 100 S10G16    29.98S WCI  24
VALLEY CITY    FAIR      32  32 100 S9        30.00F WCI  24
OAKES          NOT AVBL
GWINNER          N/A     36  34  93 MISG      30.00F
SHEYENNE NWR     N/A     29  29 100 S3        29.95S
BUFFALO        NOT AVBL
WYNDMERE         N/A     34  34 100 SW3         N/A
 ***** THE ABOVE OBSERVATIONS ARE NON NWS ARE NOT QUALITY
       CONTROLLED AND MAY MIS-REPORT RAIN FOR SNOW...
$$

  *****  WEATHER ACROSS NORTHERN MINNESOTA  *****

CITY           SKY/WX    TMP DP  RH WIND       PRES   REMARKS
FLAG ISLAND    FAIR      34  28  80 S17       30.01S WCI  23
WARROAD        FAIR      36  30  80 S9        30.01F
ROSEAU         FAIR      37  30  75 S10       30.00F
HALLOCK        FAIR      34  32  93 S8        30.00S
THF RVR FALLS  FAIR     N/A N/A N/A S6        30.02F
HALSTAD          N/A     32  30  94 S5          N/A
FOSSTON        FAIR      34  27  75 SE9       30.02F
BAUDETTE       FAIR      35  27  72 SE12G21   30.03F
WASKISH        FAIR      30  27  86 SE7       30.06S WCI  23
CROOKSTON      FAIR      34  32  93 S6        30.02F
$$
  *****  WEATHER ACROSS CENTRAL AND WEST MINNESOTA  *****

CITY           SKY/WX    TMP DP  RH WIND       PRES   REMARKS
BEMIDJI        FAIR      30  27  88 SE8       30.05S WCI  23
PARK RAPIDS    FAIR      33  26  75 SE7       30.03F
WADENA         CLOUDY    34  28  80 E8        30.02S
DETROIT LAKES  FAIR      34  30  86 SE7       30.03F
MOORHEAD       FAIR      34  32  93 S5        30.03F
FERGUS FALLS   CLOUDY    36  30  80 CALM      30.06F
ELBOW LAKE     CLOUDY    37  34  89 E8        30.01F
MORRIS MN      CLOUDY    37  36  93 SE7       30.00F
STAPLES        CLOUDY    36  28  75 E6        30.03F
WHEATON        CLOUDY    37  34  87 SE3       30.03F
$$
  *****  WEATHER ELSEWHERE ACROSS MINNESOTA  *****

CITY           SKY/WX    TMP DP  RH WIND       PRES   REMARKS
DULUTH         FRZ DRZL  31  30  96 E12       30.09F FOG     WCI  22
INTRNTL FALLS  MOCLDY    32  25  75 S9        30.08F WCI  24
ELY            CLOUDY    30  27  86 SE8       30.11F WCI  23
CLOQUET        CLOUDY    30  30 100 E8        30.09F FOG     WCI  23
BRAINERD       CLOUDY    34  28  79 E7        30.06F
HIBBING        CLOUDY    30  27  88 SE12      30.09F WCI  20
ALEXANDRIA     CLOUDY    39  35  86 SE6       30.02F
SAINT CLOUD    CLOUDY    40  34  79 E6        30.04F
MINNEAPOLIS    DRIZZLE   39  35  86 E10       30.03F FOG
$$

  *****  WEATHER ACROSS SOUTH DAKOTA  *****

CITY           SKY/WX    TMP DP  RH WIND       PRES   REMARKS
SIOUX FALLS    CLOUDY    40  37  89 E7        29.98F
BROOKINGS      NOT AVBL
WATERTOWN      FOG       35  35 100 E7        29.97F VSB 3/4
HURON          CLOUDY    40  38  93 SE8       29.98S
SISSETON         N/A     36  35  96 S8        30.00F
ABERDEEN       CLOUDY    36  33  89 SE13      30.00S
MITCHELL       CLOUDY    40  39  97 SE8       29.98S FOG
PIERRE         FAIR      40  34  79 SE14      29.89F
MOBRIDGE       FAIR      43  32  65 SE8       29.90S
RAPID CITY     FAIR      50  35  56 NW10      29.80F
$$

  *****  SOME WEATHER IN NEARBY STATES *****

CITY           SKY/WX    TMP DP  RH WIND       PRES   REMARKS
GLASGOW MT     FAIR      45  29  53 SE6       29.88S
GREAT FALLS MT FAIR      36  21  54 W10       29.91R
CHEYENNE WY    CLOUDY    48  28  46 S8        29.85F
SCOTTSBLUFF NE FAIR      50  34  54 E9        29.82F
OMAHA NE       CLOUDY    42  37  82 NE6       29.93F
DES MOINES IA  DRIZZLE   43  42  97 N7        29.90F FOG
DAVENPORT IA   CLOUDY    44  43  96 E14       29.88F FOG
CHICAGO IL     LGT RAIN  46  43  89 NE7       29.96S FOG
EAU CLAIRE WI  CLOUDY    36  33  89 E10       30.05F
LA CROSSE WI   CLOUDY    38  35  89 E9G20     30.02F
$$

  *****  SOME NATIONAL WEATHER *****

CITY           SKY/WX    TMP DP  RH WIND       PRES   REMARKS
LA GUARDIA NY  CLOUDY    44  36  73 NE12      30.40R
RALEIGH NC     MOCLDY    64  50  60 S12G17    30.23S
ATLANTA GA     MOCLDY    67  50  54 SE10      30.11S
NEW ORLEANS LA FAIR      67  64  90 S9        30.01S
OKLAHOMA CITY  FAIR      50  43  77 E6        29.92S
ALBUQUERQUE NM FAIR      61  16  17 W18G28    29.89R
SALT LAKE CITY MOCLDY    42  38  85 NE5       30.03R
LOS ANGELES CA FAIR      58  54  86 W17       30.05R
BOISE ID       FAIR      46  31  55 SE5       30.00R
SEATTLE WA     MOCLDY    46  34  62 S3        30.06F
$$

*** WEATHER ACROSS MANITOBA...SASKATCHEWAN AND ONTARIO ***
                ***ONTARIO***

CITY           SKY/WX    TMP DP  RH WIND       PRES   REMARKS
GERALDTON      CLEAR     27   1  33 SE6       30.24F WCI  20
THUNDER BAY    CLOUDY    30  27  86 E9        30.22F WCI  22
SIOUX LOOKOUT  MOCLDY    34  14  44 S13G20    30.07S WCI  25
TORONTO        MOCLDY    36  30  80 E8G18     30.35R
BIG TROUT LK   CLOUDY    27   9  46 S16G22    30.07F WCI  14
PICKLE LAKE    NOT AVBL
DRYDEN         CLEAR     36  23  60 S10       30.04F
KENORA         MOCLDY    34  25  69 S14       30.00F WCI  24
$$
                *** MANITOBA***

CITY           SKY/WX    TMP DP  RH WIND       PRES   REMARKS
BRANDON        MOCLDY    34  30  86 S5        29.90R
DAUPHIN        CLEAR     37  32  81 W15G23    29.86R
ISLAND LAKE    CLOUDY    37  25  60 S12G17    29.85F
PILOT MOUND      N/A     34  32  93 S14         N/A  WCI  24
THE PAS        CLOUDY    25  19  80 W16G23    29.83R WCI  12
THOMPSON       LGT SNOW  30  28  93 VRB2      29.70F
WINNIPEG       CLOUDY    36  32  87 S16G23    29.95F
LYNN LAKE      FLURRIES  18  16  93 N7        29.80R WCI   8
CHURCHILL      LGT SNOW  12  10  92 E10       30.08F DRFTSNOWWCI  -1
GILLAM         FRZ DRZL  28  27  93 SE9G17    29.86F WCI  20
$$
                ***SASKATCHEWAN***

CITY           SKY/WX    TMP DP  RH WIND       PRES   REMARKS
ESTEVAN        PTCLDY    36  34  93 NE5       29.88S
KINDERSLEY     MOCLDY    37  32  81 E12       29.78F
LLOYDMINSTER   CLEAR     28  28 100 E3        29.80R FOG
PRINCE ALBERT  CLOUDY    34  30  86 VRB2      29.87R
REGINA         PTCLDY    39  34  81 E7        29.86F
YORKTON        CLEAR     32  32 100 SW3       29.87S


USA.gov is the U.S. government's official web portal to all federal, state and local government web resources and services.